This demonstration page uses our WeatherBlox Daily Observations layout. Learn more.

Left ArrowRight Arrow

39.29038, -76.61219

Hourly Observations for October 28, 2021

Temp ( °F °C ) Dew Point ( °F °C ) Humidity (%) Winds ( mph kmh ) Pressure ( in mb ) Visibility ( mi km ) Precip ( " mm )
12:54 am 00:54 Clear 52 11.1 49 9.4 89 89 N N/A 29.89 1012 10 16 N/A
1:54 am 01:54 Clear 54 12.2 49 9.4 83 83 N N/A 29.91 1013 10 16 N/A
2:54 am 02:54 Clear 53 11.7 48 8.9 83 83 N N/A 29.91 1013 10 16 N/A
3:54 am 03:54 Mostly Clear 49 9.4 47 8.3 93 93 N N/A 29.90 1012 10 16 N/A
4:54 am 04:54 Clear 49 9.4 47 8.3 93 93 N N/A 29.90 1013 10 16 N/A
5:54 am 05:54 Clear 49 9.4 46 7.8 90 90 N N/A 29.91 1013 10 16 N/A
6:54 am 06:54 Mostly Clear 48 8.9 46 7.8 93 93 N N/A 29.93 1014 10 16 N/A
7:54 am 07:54 Partly Cloudy 50 10 46 7.8 86 86 N N/A 29.94 1014 10 16 N/A
8:54 am 08:54 Mostly Cloudy 55 12.8 47 8.3 74 74 VRB 3 6 29.96 1014 10 16 N/A
9:54 am 09:54 Mostly Cloudy 59 15 50 10 72 72 E 8 13 29.96 1015 10 16 N/A
10:54 am 10:54 Mostly Cloudy 61 16.1 50 10 67 67 undefined N/A 29.95 1014 10 16 N/A
11:54 am 11:54 Mostly Cloudy 63 17.2 50 10 63 63 VRB 5 7 29.92 1013 10 16 N/A
12:54 pm 12:54 Mostly Cloudy 64 17.8 51 10.6 63 63 E 9 15 29.89 1012 10 16 N/A
1:54 pm 13:54 Mostly Cloudy 63 17.2 51 10.6 65 65 NE 7 11 29.89 1012 10 16 N/A
2:54 pm 14:54 Mostly Cloudy 64 17.8 51 10.6 63 63 ESE 6 9 29.88 1012 10 16 N/A
3:54 pm 15:54 Mostly Cloudy 65 18.3 50 10 59 59 ESE 12 19 29.87 1012 10 16 N/A
4:54 pm 16:54 Mostly Cloudy 64 17.8 50 10 60 60 ESE 12 19 29.86 1011 10 16 N/A
5:54 pm 17:54 Mostly Cloudy 63 17.2 51 10.6 65 65 ESE 7 11 29.86 1011 10 16 N/A
6:54 pm 18:54 Mostly Cloudy 62 16.7 52 11.1 70 70 E 9 15 29.85 1011 10 16 N/A
7:54 pm 19:54 Cloudy 61 16.1 53 11.7 75 75 ESE 7 11 29.87 1012 10 16 N/A
8:54 pm 20:54 Cloudy 61 16.1 51 10.6 70 70 ESE 10 17 29.89 1012 10 16 N/A
9:25 pm 21:25 Cloudy 60 15.6 51 10.6 72 72 ESE 12 19 29.90 1012 10 16 N/A
9:54 pm 21:54 Cloudy 60 15.6 52 11.1 75 75 ESE 13 20 29.90 1013 10 16 N/A
10:21 pm 22:21 Cloudy 60 15.6 52 11.1 75 75 ESE 15 24 29.89 1012 10 16 N/A
10:38 pm 22:38 Cloudy 60 15.6 52 11.1 75 75 ESE 13 20 29.88 1012 10 16 N/A
10:54 pm 22:54 Cloudy 60 15.6 52 11.1 75 75 E 10 17 29.87 1012 10 16 N/A
11:54 pm 23:54 Cloudy with Drizzle 59 15 52 11.1 78 78 ESE 12 19 29.86 1011 10 16 0.00 0.00

Powered by AerisWeather